Regional Weather Roundup
Issued by NWS Sioux Falls, SD

Home | Current Version | Previous Version | Text Only | Print | Product List | Glossary On
Versions: 1 2 3 4 5 6 7 8 9 10 11 12 13 14 15 16 17 18 19 20 21 22 23 24 25 26 27 28 29 30 31 32 33 34 35 36 37 38 39 40 41 42 43 44 45 46 47 48 49 50
510
ASUS43 KFSD 160302
RWRFSD

WEATHER ROUNDUP FOR SE SOUTH DAKOTA/SW MINNESOTA/NW IOWA
NATIONAL WEATHER SERVICE SIOUX FALLS SD
900 PM CST SUN JAN 15 2017

NOTE: "FAIR" INDICATES FEW OR NO CLOUDS BELOW 12,000 FEET WITH NO
SIGNIFICANT WEATHER AND OR OBSTRUCTIONS TO VISIBILITY.


SDZ038>040-050-052>070-160400-
SOUTHEAST SOUTH DAKOTA

CITY           SKY/WX    TMP DP  RH WIND       PRES   REMARKS
BROOKINGS      CLOUDY    18  15  88 SE7       30.12S WCI   9
CHAMBERLAIN    CLOUDY    18  15  89 CALM      30.09F
HURON          CLOUDY    13  11  92 CALM      30.11F
MADISON          N/A     23  23 100 S8          N/A  WCI  14
MITCHELL       PTCLDY    23  19  85 S7        30.12F WCI  15
SIOUX FALLS    CLOUDY    27  18  69 S5        30.14F WCI  22
WINNER         FAIR      24  19  81 CALM      30.07S
YANKTON        CLOUDY    28  19  69 SE5       30.13F WCI  23
$$

MNZ071-072-080-081-089-090-097-098-160400-
SOUTHWEST MINNESOTA

CITY           SKY/WX    TMP DP  RH WIND       PRES   REMARKS
FAIRMONT       CLOUDY    23  19  85 S7        30.20F WCI  15
JACKSON        CLOUDY    25  19  80 S7        30.18S WCI  17
LUVERNE        CLOUDY    21  14  73 CALM      30.15F
MARSHALL       CLOUDY    21  18  88 S5        30.16S WCI  15
MONTEVIDEO     CLOUDY    25  19  80 S5        30.18R WCI  19
PIPESTONE      CLOUDY    27  18  69 S5        30.13F WCI  21
REDWOOD FALLS  CLOUDY    22  16  78 S12       30.17F WCI  10
TRACY          CLOUDY    25  19  78 S5        30.15S WCI  19
WINDOM         CLOUDY    23  18  80 S6        30.17S WCI  16
WORTHINGTON    CLOUDY    25  18  74 S3        30.16
$$

IAZ001>003-012>014-020>022-031-032-NEZ013-014-SDZ071-160400-
NORTHWEST IOWA

CITY           SKY/WX    TMP DP  RH WIND       PRES   REMARKS
CHEROKEE       PTCLDY    26  23  87 E3        30.17S
DENISON        CLOUDY    32  30  93 SE5       30.14F FOG     WCI  27
ESTHERVILLE    PTCLDY    22  20  92 S7        30.18F WCI  13
LE MARS        PTCLDY    27  18  69 CALM      30.18R
ORANGE CITY    CLOUDY    27  18  69 E3        30.16F
SHELDON        CLOUDY    23  19  86 SE6       30.15F WCI  16
SIOUX CITY     CLOUDY    33  25  72 S8        30.17S WCI  26
SPENCER        PTCLDY    23  19  85 SE6       30.18F WCI  16
STORM LAKE     CLOUDY    28  25  86 SE6       30.16F WCI  22
$$

ABBREVIATIONS USED IN REMARKS
   TC - TEMPERATURE IN CELSIUS
  WCI - WIND CHILL INDEX
   HX - HEAT INDEX
  VSB - VISIBILITY





USA.gov is the U.S. government's official web portal to all federal, state and local government web resources and services.